Simultaneous Nadir Overpasses (SNOs) Predictions

Prediction of SNOs between AQUA and METOP-A Satellite Orbit:

Table of predicted SNOs for the next 14.0 days since TLE Epoch: 7/1/2013
Index Date (AQUA) Time (AQUA) Lat,Lon (AQUA) SZA (AQUA ) Date (METOP-A) Time (METOP-A) Lat,Lon (METOP-A) SZA (METOP-A ) Distance(km) Time Diff (sec)
1 07/02/2013 20:13:00 -73.72, 51.32 129.23 07/02/2013 20:11:48 -73.64, 50.64 129.26 23.00 72
2 07/02/2013 21:02:28 73.91,-141.45 50.99 07/02/2013 21:02:22 73.90,-141.41 50.98 1.47 6
3 07/02/2013 21:51:52 -73.98, 26.06 128.94 07/02/2013 21:53:03 -73.97, 26.07 128.96 1.28 71
4 07/05/2013 13:14:34 73.86, -24.36 51.17 07/05/2013 13:14:00 73.86, -24.42 51.18 1.85 34
5 07/05/2013 14:03:58 -73.96, 143.08 128.72 07/05/2013 14:04:41 -73.93, 143.07 128.76 3.75 43
6 07/08/2013 04:36:16 -73.44, -73.91 129.00 07/08/2013 04:35:07 -73.41, -75.70 128.94 56.88 69
7 07/08/2013 05:25:48 73.91, 92.72 51.52 07/08/2013 05:25:36 73.91, 92.81 51.51 2.71 12
8 07/08/2013 06:15:10 -73.95, -99.69 128.45 07/08/2013 06:16:17 -73.98, -99.70 128.42 3.69 67
9 07/10/2013 19:57:11 73.31,-123.88 51.19 07/10/2013 19:56:04 73.23,-126.32 51.23 78.80 67
10 07/10/2013 20:46:43 -73.90, 42.52 128.17 07/10/2013 20:46:33 -73.90, 42.56 128.17 1.33 10
11 07/10/2013 21:36:06 73.94,-149.91 51.88 07/10/2013 21:37:11 73.95,-149.98 51.89 2.52 65
12 07/13/2013 11:17:25 -73.86,-175.05 127.85 07/13/2013 11:16:49 -73.88,-175.07 127.83 2.38 36
13 07/13/2013 12:06:48 73.93, -7.56 52.24 07/13/2013 12:07:27 73.92, -7.62 52.23 2.07 39




NCC Satellite Simultaneous Nadir Overpasses (SNOs) Prediction Service
